OpenBCM V1.13 (Linux)

Packet Radio Mailbox

DB0FHN

[JN59NK Nuernberg]

 Login: GUEST





  
LU1HVK > KEP      10.10.19 08:05l 242 Lines 12024 Bytes #999 (0) @ WW
BID : 33048_LU1HVK
Read: DJ6UX DF7EAV GUEST
Subj: TLE 10 10
Path: DB0FHN<OE2XZR<OE5XBL<F1OYP<IZ3LSV<IK6IHL<IK7NXU<HB9ON<IW0QNL<JH4XSY<
      N3HYM<KC9VYU<N7HPX<LU1HVK
Sent: 191010/0523Z 33048@LU1HVK.2594.CBA.ARG.SA LinBPQ6.0.19

                         _    _   _ _ _   ___     ___  __
                        | |  | | | / | | | \ \   / / |/ /
                        | |  | | | | | |_| |\ \ / /| ' /
                        | |__| |_| | |  _  | \ V / | . \
                        |_____\___/|_|_| |_|  \_/  |_|\_\

     BBS/NODO - CORDOBA (LEONES-FF87UH) - LU1HVK-4 NODO - LU1HVK-3 APRS

+----------------------------------------------------------------------------+
OSCAR 7
1  7530U 74089B   19282.86314937 -.00000024  00000-0  12856-3 0  9998
2  7530 101.7591 249.4198 0012336 127.2959 287.7712 12.53640260 54707
OSCAR 11 (UoSAT 2)
1 14781U 84021B   19282.64131005 +.00000079 +00000-0 +15834-4 0  9999
2 14781 097.6057 301.9827 0007367 316.2635 043.7995 14.83110861894502
OSCAR 19 (LUSAT)
1 20442U 90005G   19282.85860730 +.00000007 +00000-0 +19020-4 0  9998
2 20442 098.6575 224.7133 0011818 170.5734 189.5674 14.32934594552525
EYESAT A
1 22825U 93061C   19282.91561971 -.00000007 +00000-0 +15286-4 0  9993
2 22825 098.9127 274.1852 0009023 035.2922 324.8855 14.30068043357866
ITAMSAT
1 22826U 93061D   19282.89089458 +.00000002 +00000-0 +18482-4 0  9991
2 22826 098.9068 274.1371 0009370 024.3759 335.7864 14.30402162358089
RADIO ROSTO
1 23439U 94085A   19282.95115298 -.00000044 +00000-0 -53250-4 0  9998
2 23439 064.8146 292.9697 0145255 091.1577 270.5991 11.27568169020661
JAS 2
1 24278U 96046B   19282.90589306 -.00000026 +00000-0 +12844-4 0  9992
2 24278 098.5548 061.0413 0349458 306.6158 050.3307 13.53093624142866
TECHSAT 1B
1 25397U 98043D   19282.84188651 -.00000012 +00000-0 +13775-4 0  9994
2 25397 098.6966 221.6527 0002371 077.0761 283.0682 14.23671870103752
ISS (ZARYA)
1 25544U 98067A   19283.03558669  .00001572  00000-0  35346-4 0  9995
2 25544  51.6445 151.7551 0007538 132.2819   9.4225 15.50186344193070
PCSAT
1 26931U 01043C   19282.90127447 -.00000024 +00000-0 +22591-4 0  9995
2 26931 067.0509 071.5409 0007438 268.8460 091.1789 14.30554631941092
SAUDISAT 1C
1 27607U 02058C   19282.79749338 +.00000003 +00000-0 +21231-4 0  9995
2 27607 064.5552 063.7854 0075438 234.5299 124.8748 14.75577258903596
CUTE-1
1 27844U 03031E   19282.92272295 +.00000052 +00000-0 +43033-4 0  9996
2 27844 098.6857 289.4486 0010856 066.2698 293.9617 14.22198311844340
CUBESAT XI 4
1 27848U 03031J   19282.45455462 +.00000043 +00000-0 +39167-4 0  9990
2 27848 098.6932 289.5105 0010832 078.1044 282.1348 14.21790846844136
MOZHAYETS 4
1 27939U 03042A   19282.94672871 +.00000071 +00000-0 +21255-4 0  9992
2 27939 098.0564 056.6609 0014157 072.1897 288.0853 14.66808269857147
CUBESAT XI 5
1 28895U 05043F   19282.92060130 +.00000126 +00000-0 +33104-4 0  9991
2 28895 097.9756 061.8782 0016630 358.9971 001.1195 14.63697682743819
CUTE-1.7+APD II
1 32785U 08021C   19282.83520703 +.00000185 +00000-0 +25541-4 0  9991
2 32785 097.5561 277.2484 0011620 245.2141 114.7868 14.88354365620441
DELFI C3
1 32789U 08021G   19282.82453931 +.00001256 +00000-0 +87377-4 0  9997
2 32789 097.4532 329.0188 0013753 098.2928 261.9860 15.07157830623908
SEEDS
1 32791U 08021J   19282.79695822 +.00000220 +00000-0 +27691-4 0  9996
2 32791 097.5318 283.2879 0012332 215.8149 144.2244 14.90882709620880
YUBELEINY
1 32953U 08025A   19282.88534187  .00000020  00000-0  75656-4 0  9998
2 32953  82.4995  74.3609 0018817 241.4290 118.4898 12.43091475516374
PRISM (HITOMI)
1 33493U 09002B   19282.84742741 +.00000033 +00000-0 +84421-5 0  9992
2 33493 098.1214 208.0944 0015060 164.2461 195.9231 14.96753148582061
KKS-1 (KISEKI)
1 33499U 09002H   19282.86027099 +.00000086 +00000-0 +20776-4 0  9992
2 33499 098.3417 125.1412 0008606 199.1809 160.9076 14.75467673575483
SWISSCUBE
1 35932U 09051B   19282.89532750 +.00000119 +00000-0 +37857-4 0  9993
2 35932 098.5984 092.2596 0007758 170.4918 189.6427 14.56316094533217
BEESAT
1 35933U 09051C   19282.89151659 +.00000098 +00000-0 +33068-4 0  9995
2 35933 098.6003 094.0612 0005724 180.9065 179.2122 14.56401242533284
ITUPSAT 1
1 35935U 09051E   19282.73963980 +.00000093 +00000-0 +32564-4 0  9993
2 35935 098.6111 094.1338 0008038 182.0559 178.0606 14.55556900533054
XIWANG-1 (HOPE-1)
1 36122U 09072B   19282.75465117 -.00000068 +00000-0 -69143-4 0  9993
2 36122 100.0786 279.8395 0008218 083.1255 277.0667 13.16350893471752
TISAT 1
1 36799U 10035E   19282.88679142 +.00000178 +00000-0 +24006-4 0  9992
2 36799 098.1702 078.8988 0013569 076.7614 283.5115 14.91171834501433
JUGNU
1 37839U 11058B   19282.62650192  .00000321  00000-0  29199-4 0  9998
2 37839  19.9626   9.9219 0018960 131.5185  10.6056 14.12660846413243
SRMSAT
1 37841U 11058D   19282.69196691  .00000302  00000-0  20739-4 0  9997
2 37841  19.9728  68.6348 0011927 358.2489 121.7066 14.10640692412660
M-CUBED/EXP-1 PRIME
1 37855U 11061F   19282.84513930  .00001027  00000-0  58863-4 0  9996
2 37855 101.7153 236.5329 0173022 101.2590 260.8121 15.05626258433809
HORYU 2
1 38340U 12025D   19282.73943556  .00000160  00000-0  31394-4 0  9993
2 38340  98.3186 324.6600 0012656 121.4370 238.8077 14.75756969397838
STRAND 1
1 39090U 13009E   19282.87519936 +.00000024 +00000-0 +23450-4 0  9998
2 39090 098.4774 126.8831 0008429 318.7218 041.3330 14.35099754346604
SOMP
1 39134U 13015E   19282.63854655 +.00001236 +00000-0 +65026-4 0  9999
2 39134 064.8648 014.4555 0036744 284.4622 075.2429 15.20378616357388
BEESAT 3
1 39135U 13015F   19282.76215782 +.00000889 +00000-0 +53294-4 0  9993
2 39135 064.8696 033.9574 0035986 293.1581 066.5755 15.17641174357010
BEESAT 2
1 39136U 13015G   19282.71041543  .00000790  00000-0  49427-4 0  9995
2 39136  64.8702  38.2719 0027781 298.5716  61.2614 15.17059122357316
CUBEBUG 1
1 39153U 13018D   19282.82791929  .00000173  00000-0  29502-4 0  9996
2 39153  97.9810  20.3336 0016828 187.3343 172.7625 14.80604413348554
ZACUBE
1 39417U 13066B   19282.93114506 +.00000206 +00000-0 +32123-4 0  9994
2 39417 097.5629 290.0694 0059539 024.1145 336.2835 14.81157937317807
TRITON 1
1 39427U 13066M   19282.88624810 +.00000168 +00000-0 +34663-4 0  9991
2 39427 097.6903 253.3508 0114119 162.3727 198.1490 14.67887221314750
GOMX 1
1 39430U 13066Q   19282.89761683 +.00000164 +00000-0 +39116-4 0  9990
2 39430 097.7580 232.0596 0149854 257.3819 101.0603 14.59294067313117
HUMSAT D
1 39433U 13066T   19282.66958551  .00000550  00000-0  58916-4 0  9998
2 39433  97.5425 325.4924 0029244 284.2821  75.5152 14.92265671319925
CUBEBUG 2
1 39440U 13066AA  19282.90602707 +.00000207 +00000-0 +35491-4 0  9994
2 39440 097.6096 274.6989 0081702 077.4230 283.6103 14.75894909315474
FUNCUBE 1
1 39444U 13066AE  19282.93641499 +.00000263 +00000-0 +38626-4 0  9997
2 39444 097.5600 292.1265 0058496 017.5519 342.7698 14.81985737316114
UWE-3
1 39446U 13066AG  19282.91925597 +.00000205 +00000-0 +33710-4 0  9996
2 39446 097.5855 281.8456 0071212 051.3582 309.3975 14.78430292315407
SPROUT
1 39770U 14029E   19282.78506776  .00000418  00000-0  52198-4 0  9992
2 39770  97.8880  25.3766 0009967  75.8479 284.3826 14.87448181291649
UNISAT 6
1 40012U 14033C   19282.70286162 +.00000171 +00000-0 +32688-4 0  9992
2 40012 097.7407 144.3555 0059724 093.0440 267.7605 14.74015040285337
DUCHIFAT 1
1 40021U 14033M   19282.85217003 +.00000317 +00000-0 +38175-4 0  9995
2 40021 097.9243 207.8221 0014008 041.5547 318.6733 14.90699280288405
QB50P1
1 40025U 14033R   19282.73394549  .00000282  00000-0  35976-4 0  9994
2 40025  97.9035 202.2227 0013617  51.4066 308.8368 14.88994214288142
CHUBUSAT 1
1 40300U 14070C   19282.80698514  .00000542  00000-0  26485-4 0  9992
2 40300  97.3171 354.0820 0020732  21.6845 117.8486 15.22196207273225
NUDT-PHONESAT
1 40900U 15049B   19282.91792757 +.00001749 +00000-0 +76999-4 0  9996
2 40900 097.4383 291.1636 0013682 141.7339 306.0294 15.23114652224894
ZDPS 2A
1 40901U 15049C   19282.93537323 +.00000817 +00000-0 +43593-4 0  9994
2 40901 097.4628 287.1407 0013637 162.3772 262.8052 15.17863980224415
ZDPS 2B
1 40902U 15049D   19282.91108193 +.00000893 +00000-0 +47518-4 0  9997
2 40902 097.4580 284.5213 0013891 160.0493 287.5828 15.17725306224386
XW-2A
1 40903U 15049E   19282.76652560  .00001810  00000-0  44108-4 0  9995
2 40903  97.3268 326.1155 0015195  94.9169  40.8831 15.42166423227677
KAITUO 1A
1 40904U 15049F   19282.90971691 +.00000337 +00000-0 +21282-4 0  9992
2 40904 097.4717 283.0059 0014714 169.5170 277.9872 15.15453611224144
OBJECT G
1 40905U 15049G   19282.93309156 +.00000430 +00000-0 +26953-4 0  9991
2 40905 097.4761 280.4625 0015699 165.3539 252.3953 15.14358336224010
XW-2C
1 40906U 15049H   19282.94752491 +.00000397 +00000-0 +24250-4 0  9997
2 40906 097.4720 283.1770 0014893 160.8080 256.3570 15.15773115224154
XW-2D
1 40907U 15049J   19282.84986230  .00000582  00000-0  33743-4 0  9990
2 40907  97.4695 282.7610 0014579 158.4611 285.9981 15.15970984224155
LILACSAT 2
1 40908U 15049K   19282.94799834 +.00000125 +00000-0 +10486-4 0  9996
2 40908 097.4836 281.5600 0015937 165.9069 248.8197 15.13860114223942
XW-2F
1 40910U 15049M   19282.96158813 +.00000671 +00000-0 +36814-4 0  9996
2 40910 097.4667 285.0436 0015429 150.5823 262.9221 15.17453548224193
XW-2B
1 40911U 15049N   19282.75617730  .00000409  00000-0  24792-4 0  9993
2 40911  97.4720 283.3379 0014338 159.0483 287.6217 15.15897608224034
KAITUO 1B
1 40912U 15049P   19282.76013698  .00000889  00000-0  44640-4 0  9994
2 40912  97.4516 288.6649 0015965 133.3156 313.6502 15.19785047224488
TIANWANG 1C (TW-1C)
1 40926U 15051B   19282.89979167  .00012483  00000-0  16881-3 0  9996
2 40926  97.1243 328.9995 0006143 321.7000  31.2168 15.57849334227765
TIANWANG 1B (TW-1B)
1 40927U 15051C   19282.80192032  .00011631  00000-0  16777-3 0  9994
2 40927  97.1270 328.0395 0006496 335.6284 114.7420 15.56120164227591
